This demonstration page uses our WeatherBlox Daily Observations layout. Learn more.

Left ArrowRight Arrow

38.20091, -84.87328

Hourly Observations for April 11, 2020

Temp ( °F °C ) Dew Point ( °F °C ) Humidity (%) Winds ( mph kmh ) Pressure ( in mb ) Visibility ( mi km ) Precip ( " mm )
12:53 am 00:53 Clear 34 1.1 28 -2.2 79 79 Calm 30.05 1018 10 16 0.00 0.00
1:53 am 01:53 Clear 35 1.7 28 -2.2 76 76 Calm 30.05 1018 10 16 0.00 0.00
2:53 am 02:53 Clear 35 1.7 27 -2.8 72 72 Calm 30.05 1018 10 16 0.00 0.00
3:53 am 03:53 Clear 34 1.1 28 -2.2 79 79 Calm 30.05 1018 10 16 0.00 0.00
4:53 am 04:53 Clear 34 1.1 27 -2.8 76 76 Calm 30.05 1018 10 16 0.00 0.00
5:53 am 05:53 Mostly Cloudy 35 1.7 28 -2.2 76 76 Calm 30.04 1017 10 16 0.00 0.00
6:53 am 06:53 Cloudy 38 3.3 27 -2.8 65 65 S 3 6 30.05 1018 10 16 0.00 0.00
7:53 am 07:53 Cloudy 40 4.4 31 -0.6 70 70 Calm 30.07 1018 10 16 0.00 0.00
8:53 am 08:53 Cloudy 43 6.1 33 0.6 68 68 Calm 30.08 1019 10 16 0.00 0.00
9:53 am 09:53 Sunny 48 8.9 32 0 54 54 WSW 8 13 30.09 1019 10 16 0.00 0.00
10:53 am 10:53 Sunny 54 12.2 28 -2.2 37 37 SW 8 13 30.09 1019 10 16 0.00 0.00
11:53 am 11:53 Mostly Cloudy 55 12.8 25 -3.9 31 31 SW 8 13 30.08 1019 10 16 0.00 0.00
12:53 pm 12:53 Partly Cloudy 59 15 30 -1.1 33 33 SSW 6 9 30.06 1018 10 16 0.00 0.00
1:53 pm 13:53 Sunny 60 15.6 27 -2.8 28 28 VRB 6 9 30.02 1017 10 16 0.00 0.00
2:53 pm 14:53 Sunny 63 17.2 27 -2.8 26 26 S 12 19 29.99 1016 10 16 0.00 0.00
3:53 pm 15:53 Mostly Sunny 61 16.1 22 -5.6 22 22 SSW 10 17 29.96 1015 10 16 0.00 0.00
4:53 pm 16:53 Mostly Cloudy 61 16.1 20 -6.7 20 20 SW 13 20 29.95 1014 10 16 0.00 0.00
5:53 pm 17:53 Cloudy 60 15.6 26 -3.3 27 27 SW 8 13 29.95 1014 10 16 0.00 0.00
6:53 pm 18:53 Cloudy 60 15.6 27 -2.8 28 28 S 7 11 29.94 1014 10 16 0.00 0.00
7:53 pm 19:53 Cloudy 58 14.4 29 -1.7 33 33 SSW 9 15 29.93 1013 10 16 0.00 0.00
8:53 pm 20:53 Mostly Cloudy 56 13.3 30 -1.1 37 37 SE 5 7 29.91 1013 10 16 0.00 0.00
9:53 pm 21:53 Cloudy 52 11.1 36 2.2 55 55 Calm 29.90 1013 10 16 0.00 0.00
10:53 pm 22:53 Cloudy 53 11.7 35 1.7 51 51 SSE 3 6 29.89 1012 10 16 0.00 0.00
11:53 pm 23:53 Cloudy 55 12.8 34 1.1 45 45 S 5 7 29.88 1012 10 16 0.00 0.00

Powered by AerisWeather